User: anonymous   Login
Location: Unspecified
(0.0000°N, 0.0000°E)
Time: 21:13:03
(UTC+00:00)
Language:

PANSAT - Orbit

View from above orbital plane
View from above orbital plane
View from above satellite
View from above satellite

Ground track
Ground track

The orbit data is extracted from the following two-line orbital elements,

1 25520U 98064B   21262.16239392  .00000940  00000-0  23832-4 0  9994
2 25520  28.4383 179.9666 0004869 352.8953   7.1573 15.30035236272248
Epoch (UTC): 19 September 2021 03:53:50
Eccentricity: 0.0004869
inclination: 28.4383°
perigee height: 472 km
apogee height: 479 km
right ascension of ascending node: 179.9666°
argument of perigee: 352.8953°
revolutions per day: 15.30035236
mean anomaly at epoch: 7.1573°
orbit number at epoch: 27224

The dashed part of the orbit path shows where the satellite is in the earth's shadow,  

DLR